TimeEDT,TemperatureF,Dew PointF,Humidity,Sea Level PressureIn,VisibilityMPH,Wind Direction,Wind SpeedMPH,Gust SpeedMPH,PrecipitationIn,Events,Conditions,WindDirDegrees,DateUTC
12:53 AM,51.1,45.0,80,29.86,10.0,SW,3.5,-,N/A,,Clear,220,2013-05-17 04:53:00
1:53 AM,48.9,43.0,80,29.88,10.0,Calm,Calm,-,N/A,,Clear,0,2013-05-17 05:53:00
2:53 AM,48.0,42.1,80,29.90,10.0,SSW,3.5,-,N/A,,Clear,210,2013-05-17 06:53:00
3:53 AM,46.0,41.0,83,29.93,10.0,Calm,Calm,-,N/A,,Clear,0,2013-05-17 07:53:00
4:53 AM,51.1,39.0,63,29.96,10.0,NNW,5.8,-,N/A,,Clear,330,2013-05-17 08:53:00
5:53 AM,48.9,39.9,71,29.99,10.0,Calm,Calm,-,N/A,,Clear,0,2013-05-17 09:53:00
6:53 AM,55.0,39.0,55,29.99,10.0,Variable,5.8,-,N/A,,Clear,0,2013-05-17 10:53:00
8:38 AM,57.2,37.4,48,30.06,10.0,NW,10.4,18.4,N/A,,Clear,310,2013-05-17 12:38:00
8:53 AM,55.9,37.9,51,30.06,10.0,NNW,10.4,18.4,N/A,,Clear,340,2013-05-17 12:53:00
9:53 AM,57.0,37.9,49,30.07,10.0,NNW,11.5,18.4,N/A,,Clear,340,2013-05-17 13:53:00
10:53 AM,59.0,39.0,48,30.08,10.0,NNW,11.5,21.9,N/A,,Clear,330,2013-05-17 14:53:00
11:53 AM,60.1,39.0,46,30.08,10.0,North,12.7,18.4,N/A,,Clear,360,2013-05-17 15:53:00
12:53 PM,63.0,39.0,41,30.08,10.0,NNW,5.8,-,N/A,,Clear,330,2013-05-17 16:53:00
1:53 PM,68.0,41.0,37,30.08,10.0,North,10.4,16.1,N/A,,Clear,360,2013-05-17 17:53:00
3:53 PM,69.1,37.0,31,30.09,10.0,North,15.0,24.2,N/A,,Clear,10,2013-05-17 19:53:00
4:53 PM,68.0,37.9,33,30.09,10.0,North,9.2,18.4,N/A,,Clear,10,2013-05-17 20:53:00
5:53 PM,66.9,37.0,33,30.12,10.0,NNE,5.8,-,N/A,,Clear,30,2013-05-17 21:53:00
6:53 PM,66.0,37.0,34,30.13,10.0,North,5.8,-,N/A,,Clear,360,2013-05-17 22:53:00
7:53 PM,59.0,41.0,51,30.15,10.0,Calm,Calm,-,N/A,,Clear,0,2013-05-17 23:53:00
8:53 PM,53.1,42.1,66,30.18,10.0,SW,4.6,-,N/A,,Clear,230,2013-05-18 00:53:00
9:53 PM,50.0,42.1,74,30.20,10.0,SW,4.6,-,N/A,,Clear,230,2013-05-18 01:53:00
10:53 PM,48.9,42.1,77,30.21,10.0,WSW,4.6,-,N/A,,Clear,240,2013-05-18 02:53:00
11:53 PM,48.0,42.1,80,30.23,10.0,SW,3.5,-,N/A,,Clear,230,2013-05-18 03:53:00